Regional Weather Roundup
Issued by NWS Upton, NY

Current Version | Previous Version | Graphics & Text | Print | Product List | Glossary Off
Versions: 1 2 3 4 5 6 7 8 9 10 11 12 13 14 15 16 17 18 19 20 21 22 23 24 25 26 27 28 29 30 31 32 33 34 35 36 37 38 39 40 41 42 43 44 45 46 47 48 49

000
ASUS41 KOKX 241908
RWROKX

REGIONAL WEATHER ROUNDUP
NATIONAL WEATHER SERVICE NEW YORK NY
300 PM EDT MON APR 24 2017

NOTE: "FAIR" INDICATES FEW OR NO CLOUDS BELOW 12,000 FEET WITH NO
SIGNIFICANT WEATHER AND/OR OBSTRUCTIONS TO VISIBILITY.

NYZ071-072-176-178-NJZ106-104-242000-
NEW YORK CITY METRO AREA

CITY           SKY/WX    TMP DP  RH WIND       PRES   REMARKS
Central Park   CLOUDY    60  42  51 VRB5      30.17S
Wall St Helipt PTCLDY    57  46  66 NW8       30.16S
Bronx Bot Gard   N/A     59  43  55 SE6       30.17R
LaGuardia APRT CLOUDY    57  43  59 NE10      30.15S
Kennedy INTL   CLOUDY    55  43  63 SE12      30.17R
Breezy Point     N/A     48 N/A N/A SE9         N/A
Newark/Liberty LGT RAIN  57  41  55 S6        30.15S
Teterboro      LGT RAIN  61  41  47 E5        30.13F
$$

NYZ177-179-078>081-242000-
LONG ISLAND NEW YORK

CITY           SKY/WX    TMP DP  RH WIND       PRES   REMARKS
Jones Beach      N/A     48 N/A N/A E7          N/A
Matinecock PT    N/A     50 N/A N/A E12         N/A
Farmingdale    PTSUNNY   55  43  63 S10       30.16S
MacArthur/ISP  CLOUDY    55  43  63 S8        30.16S
Shirley        CLOUDY    52  44  74 SE9       30.17S
Mt Sinai Harb    N/A    N/A N/A N/A MISG        N/A
Westhampton    CLOUDY    52  40  63 SE6       30.18S
East Hampton     N/A     52  42  69 SE8       30.17R
Montauk          N/A     52  44  74 NE8       30.19S
$$

NYZ052-065-067-242000-
HUDSON VALLEY

CITY           SKY/WX    TMP DP  RH WIND       PRES   REMARKS
White Plains   CLOUDY    61  37  41 E8        30.14F
Larchmont Harb   N/A     50 N/A N/A E9          N/A
Croton O-T Hud   N/A     57 N/A N/A MISG        N/A
Newburgh       PTSUNNY   64  48  55 VRB6      30.15S
Montgomery     CLOUDY    68  42  38 SE8       30.12F
Poughkeepsie   CLOUDY    67  44  43 W5        30.11F
Albany         MOSUNNY   72  35  25 W3        30.12F
$$

NJZ001-105-106-008-010-013-015-019>022-104-242000-
NEW JERSEY

CITY           SKY/WX    TMP DP  RH WIND       PRES   REMARKS
Newark/Liberty LGT RAIN  57  41  55 S6        30.15S
Teterboro      LGT RAIN  61  41  47 E5        30.13F
Caldwell       CLOUDY    61  41  47 E7        30.14F
Somerville     LGT RAIN  59  44  57 VRB5      30.12S
Linden         CLOUDY    55  40  58 S8        30.15S
Sussex         CLOUDY    65  41  41 VRB3      30.14S
Andover          N/A     63  36  36 CALM      30.13S
Trenton        CLOUDY    57  43  59 NE9       30.12F
Millville      LGT RAIN  57  48  72 E15       30.08F
Atlantic City  CLOUDY    56  48  74 E18       30.10F
Wrightstown    CLOUDY    56  44  62 NE10      30.10S
Toms River     CLOUDY    55  47  74 NE9       30.14F
Belmar         CLOUDY    53  44  71 NE12      30.15S
$$

PAZ047>061-062-071-242000-
EASTERN PENNSYLVANIA

CITY           SKY/WX    TMP DP  RH WIND       PRES   REMARKS
Philadelphia   CLOUDY    58  43  57 E8        30.11S
Allentown      LGT RAIN  60  41  49 E10       30.13R
Scranton       CLOUDY    68  31  25 VRB5      30.10S
$$

CTZ002-004>006-009-010-012-RIZ004-006-007-MAZ004-011-015-242000-
SOUTHERN NEW ENGLAND
 IN CT

CITY           SKY/WX    TMP DP  RH WIND       PRES   REMARKS
Bradley INTL   CLOUDY    71  35  26 SE3       30.13F
Hartford       CLOUDY    68  44  42 S6        30.13F
Danbury        CLOUDY    61  41  47 SE6       30.15F
Wtrbury/Oxford PTSUNNY   61  37  41 SE9       30.16F
Bridgeport     CLOUDY    57  39  51 E8        30.16F
Meriden        CLOUDY    63  40  42 S7        30.15F
New Haven      CLOUDY    59  37  44 SE3       30.16F
Chester          N/A     61  37  41 CALM      30.16F
Groton         CLOUDY    55  38  52 E3        30.17F
Wilimantic     CLOUDY    70  40  33 S10       30.14F

 IN RI

CITY           SKY/WX    TMP DP  RH WIND       PRES   REMARKS
Providence     PTSUNNY   55  44  66 S13       30.18F
Block Island   CLOUDY    50  44  80 E6        30.18F
Westerly       CLOUDY    56  40  55 CALM      30.18F
 IN MA

CITY           SKY/WX    TMP DP  RH WIND       PRES   REMARKS
Boston         CLOUDY    58  42  55 E9        30.16S
Worcester      MOSUNNY   68  29  23 S12       30.14F
Westfield      CLOUDY    71  34  25 S8        30.13F
Provincetown   PTSUNNY   56  45  66 S14G20    30.19S
Nantucket      CLOUDY    49  43  80 SE8       30.20S
$$

ANZ330-335-338-340-345-350-353-355-242000-
COASTAL MARINE OBSERVATIONS


STATION/POSITION TIME  SKY/WX   TEMP    WIND        PRES    VSBY  WAVE
                                AIR SEA DIR/SP/G                  HT/PER
                 (UTC)          (F)     (DEG/KT/KT) (MB)    (MI)  (FT/S)
NY HARB ENTRANCE 1750            49 50   90/ 10/ 12 1021.5          3/11
20 S FIRE ISLAND 1850            48 48   80/ 12/ 14 1020.4          3/ 7
GREAT SOUTH BAY  1730            50 56   90/ 10/ 12   N/A
23 SSW MONTAUK P 1750            47 46              1022.2          2/ 9
15 E BARNEGAT LI 1830               50                N/A           4/11
HUDSON CANYON    1750            49 47   80/ 16/ 17 1020.0          4/11
KINGS POINT      1848            54 48   80/  5/  8 1020.9
EXECUTION ROCKS  NOT AVBL
CENTRAL LI SOUND 1845            49      20/  6/  6   N/A           0
EASTERN LI SOUND NOT AVBL
ROBBINS REEF     1848            50     180/ 15/ 15 1021.2
$$


>>>>>>>>>>>>>>>>>>>>>>>>>>>> KEY <<<<<<<<<<<<<<<<<<<<<<<<<<<
>                                                          <
>     SKY/WX - Sky Condition/Present Weather               <
>     TMP    - Temperature in Fahrenheit                   <
>     DP     - Dew Point in Fahrenheit                     <
>     RH     - Relative Humidity in Percent                <
>     WIND   - Direction (from) and Speed in MPH           <
>     PRES   - Mean Sea Level Pressure (inches of Hg)      <
>     WCI    - Wind Chill Index                            <
>     VSB    - VISIBILITY IN MILES                         <
>     HX     - HEAT INDEX                                  <
>     TC     - TEMPERATURE IN CELSIUS                      <
>     VRB    - VARIABLE WIND DIRECTION                     <
>                                                          <
>>>>>>>>>>>>>>>>>>>>>>>>>>>> KEY <<<<<<<<<<<<<<<<<<<<<<<<<<<



USA.gov is the U.S. government's official web portal to all federal, state and local government web resources and services.